Location: M.A.R.S.Observatory
(35.4031°N, 81.5481°W)
Time: 07:50:27
(UTC-04:00)

SL-8 R/B - Visible Passes

Search period start: 29 September 2016 00:00
Search period end: 09 October 2016 00:00
Orbit: 658 x 668 km, 48.4° (Epoch: 29 September)

Date Brightness Start Highest point End Pass type
(mag) Time Alt. Az. Time Alt. Az. Time Alt. Az.
29 Sep 3.7 19:54:15 10° SW 19:59:02 84° NW 20:03:50 10° NE visible
29 Sep 5.5 21:38:14 10° WNW 21:42:06 24° NNW 21:42:21 24° NNW visible
30 Sep 4.9 20:25:52 10° W 20:30:20 39° NNW 20:34:17 13° NE visible
30 Sep 6.3 22:10:39 10° NW 22:12:17 15° NNW 22:12:17 15° NNW visible
01 Oct 5.6 20:58:05 10° WNW 21:01:55 23° NNW 21:04:10 17° NNE visible
02 Oct 5.0 19:45:41 10° W 19:50:07 37° NNW 19:54:35 10° NE visible
02 Oct 5.9 21:30:31 10° NW 21:33:43 18° N 21:33:56 17° N visible
03 Oct 5.6 20:17:57 10° WNW 20:21:44 23° NNW 20:25:30 10° NE visible
03 Oct 6.4 22:02:31 10° NW 22:03:40 14° NNW 22:03:40 14° NNW visible
04 Oct 5.8 20:50:22 10° NW 20:53:33 17° N 20:55:23 14° NNE visible
05 Oct 5.6 19:37:49 10° WNW 19:41:32 22° NNW 19:45:16 10° NE visible
05 Oct 5.9 21:22:19 10° NW 21:25:02 17° N 21:25:02 17° N visible
06 Oct 5.8 20:10:13 10° NW 20:13:22 17° N 20:16:31 10° NE visible
06 Oct 6.3 21:53:36 10° NW 21:54:42 14° NNW 21:54:42 14° NNW visible
07 Oct 5.7 20:42:06 10° NW 20:45:17 17° N 20:46:22 16° NNE visible
08 Oct 5.8 19:30:03 10° NW 19:33:11 17° N 19:36:19 10° NE visible
08 Oct 5.6 21:13:21 10° NW 21:16:02 21° N 21:16:02 21° N visible
